When you browse on this site, cookies collect data to enhance your experience and personalize the content and advertising you see.
Visit our Privacy Policy to learn more. By continuing to use the site, you agree to this use of cookies and data.
  • In Romania
  • List of Countries
  • For 7 days
  • Water Temperature
  • Satellite Maps
  • Weather Map
  • Weather Widgets
  • user-avatar
    Login

    Hourly Weather Shahabad

    Today, 25 April, Thursday

    Time Temperature Precipitation Wind Pressure Humidity
    00:00 +32°C° 0 mm 1 mps 735 mmHg 24%
    01:00 +32°C° 0 mm 1 mps 734 mmHg 24%
    02:00 +31°C° 0 mm 1 mps 734 mmHg 25%
    03:00 +31°C° 0 mm 1 mps 734 mmHg 26%
    04:00 +30°C° 0 mm 2 mps 734 mmHg 27%
    05:00 +29°C° 0 mm 2 mps 734 mmHg 33%
    06:00 +31°C° 0 mm 2 mps 734 mmHg 31%
    07:00 +34°C° 0 mm 2 mps 735 mmHg 28%
    08:00 +35°C° 0 mm 3 mps 735 mmHg 25%
    09:00 +38°C° 0 mm 2 mps 735 mmHg 22%
    10:00 +40°C° 0 mm 2 mps 735 mmHg 19%
    11:00 +40°C° 0 mm 2 mps 736 mmHg 19%
    12:00 +42°C° 0 mm 2 mps 735 mmHg 17%
    13:00 +43°C° 0 mm 1 mps 735 mmHg 14%
    14:00 +44°C° 0 mm 1 mps 734 mmHg 12%
    15:00 +44°C° 0 mm 1 mps 734 mmHg 12%
    16:00 +43°C° 0 mm 1 mps 733 mmHg 12%
    17:00 +43°C° 0 mm 2 mps 733 mmHg 12%
    18:00 +41°C° 0 mm 2 mps 733 mmHg 14%
    19:00 +39°C° 0 mm 3 mps 733 mmHg 15%
    20:00 +37°C° 0 mm 3 mps 733 mmHg 17%
    21:00 +36°C° 0 mm 3 mps 733 mmHg 17%
    22:00 +36°C° 0 mm 2 mps 733 mmHg 18%
    23:00 +35°C° 0 mm 2 mps 733 mmHg 18%

    Tomorrow, 26 April, Friday

    Time Temperature Precipitation Wind Pressure Humidity
    00:00 +33°C° 0 mm 1 mps 733 mmHg 19%
    01:00 +32°C° 0 mm 1 mps 733 mmHg 21%
    02:00 +32°C° 0 mm 1 mps 732 mmHg 22%
    03:00 +31°C° 0 mm 1 mps 733 mmHg 22%
    04:00 +31°C° 0 mm 1 mps 733 mmHg 23%
    05:00 +28°C° 0 mm 0 mps 733 mmHg 23%
    06:00 +32°C° 0 mm 1 mps 733 mmHg 21%
    07:00 +34°C° 0 mm 1 mps 733 mmHg 20%
    08:00 +36°C° 0 mm 2 mps 734 mmHg 18%
    09:00 +39°C° 0 mm 3 mps 734 mmHg 15%
    10:00 +42°C° 0 mm 4 mps 734 mmHg 13%
    11:00 +45°C° 0 mm 5 mps 734 mmHg 11%
    12:00 +46°C° 0 mm 6 mps 734 mmHg 10%
    13:00 +46°C° 0 mm 6 mps 733 mmHg 10%
    14:00 +46°C° 0 mm 6 mps 732 mmHg 9%
    15:00 +46°C° 0 mm 6 mps 732 mmHg 9%
    16:00 +45°C° 0 mm 6 mps 732 mmHg 10%
    17:00 +45°C° 0 mm 6 mps 731 mmHg 10%
    18:00 +42°C° 0 mm 5 mps 732 mmHg 12%
    19:00 +40°C° 0 mm 5 mps 733 mmHg 14%
    20:00 +37°C° 0 mm 4 mps 733 mmHg 15%
    21:00 +36°C° 0 mm 4 mps 733 mmHg 16%
    22:00 +36°C° 0 mm 4 mps 734 mmHg 16%
    23:00 +35°C° 0 mm 4 mps 734 mmHg 17%

    Day after tomorrow, 27 April, Saturday

    Time Temperature Precipitation Wind Pressure Humidity
    00:00 +34°C° 0 mm 4 mps 734 mmHg 16%
    01:00 +34°C° 0 mm 4 mps 733 mmHg 15%
    02:00 +33°C° 0 mm 4 mps 733 mmHg 14%
    03:00 +33°C° 0 mm 3 mps 733 mmHg 13%
    04:00 +33°C° 0 mm 3 mps 733 mmHg 11%
    05:00 +31°C° 0 mm 3 mps 733 mmHg 10%
    06:00 +35°C° 0 mm 4 mps 733 mmHg 10%
    07:00 +37°C° 0 mm 5 mps 733 mmHg 10%
    08:00 +41°C° 0 mm 6 mps 734 mmHg 10%
    09:00 +43°C° 0 mm 7 mps 734 mmHg 10%
    10:00 +44°C° 0 mm 7 mps 734 mmHg 9%
    11:00 +46°C° 0 mm 8 mps 734 mmHg 8%
    12:00 +46°C° 0 mm 8 mps 733 mmHg 8%
    13:00 +46°C° 0 mm 8 mps 733 mmHg 7%
    14:00 +48°C° 0 mm 8 mps 732 mmHg 7%
    15:00 +46°C° 0 mm 8 mps 732 mmHg 7%
    16:00 +45°C° 0 mm 8 mps 731 mmHg 8%
    17:00 +45°C° 0 mm 8 mps 731 mmHg 8%
    18:00 +43°C° 0 mm 7 mps 731 mmHg 9%
    19:00 +40°C° 0 mm 6 mps 732 mmHg 10%
    20:00 +37°C° 0 mm 5 mps 732 mmHg 12%
    21:00 +37°C° 0 mm 5 mps 732 mmHg 12%
    22:00 +36°C° 0 mm 4 mps 732 mmHg 12%
    23:00 +35°C° 0 mm 4 mps 732 mmHg 13%

    28 April, Sunday

    Time Temperature Precipitation Wind Pressure Humidity
    00:00 +34°C° 0 mm 4 mps 732 mmHg 12%
    01:00 +34°C° 0 mm 4 mps 732 mmHg 11%
    02:00 +33°C° 0 mm 4 mps 731 mmHg 10%
    03:00 +33°C° 0 mm 4 mps 731 mmHg 10%
    04:00 +31°C° 0 mm 3 mps 731 mmHg 9%
    05:00 +31°C° 0 mm 3 mps 731 mmHg 9%
    06:00 +34°C° 0 mm 3 mps 731 mmHg 9%
    07:00 +36°C° 0 mm 3 mps 732 mmHg 8%
    08:00 +38°C° 0 mm 4 mps 732 mmHg 8%
    09:00 +41°C° 0 mm 5 mps 732 mmHg 7%
    10:00 +44°C° 0 mm 6 mps 732 mmHg 6%
    11:00 +46°C° 0 mm 7 mps 732 mmHg 5%
    12:00 +46°C° 0 mm 8 mps 731 mmHg 4%
    13:00 +48°C° 0 mm 8 mps 731 mmHg 4%
    14:00 +48°C° 0 mm 8 mps 730 mmHg 4%
    15:00 +47°C° 0 mm 7 mps 730 mmHg 4%
    16:00 +46°C° 0 mm 7 mps 730 mmHg 5%
    17:00 +45°C° 0 mm 7 mps 729 mmHg 5%
    18:00 +42°C° 0 mm 6 mps 730 mmHg 6%
    19:00 +40°C° 0 mm 5 mps 730 mmHg 8%
    20:00 +37°C° 0 mm 4 mps 731 mmHg 9%
    21:00 +36°C° 0 mm 4 mps 731 mmHg 9%
    22:00 +36°C° 0 mm 4 mps 731 mmHg 10%
    23:00 +35°C° 0 mm 4 mps 731 mmHg 10%

    29 April, Monday

    Time Temperature Precipitation Wind Pressure Humidity
    00:00 +34°C° 0 mm 4 mps 731 mmHg 10%
    01:00 +34°C° 0 mm 3 mps 730 mmHg 10%
    02:00 +33°C° 0 mm 3 mps 730 mmHg 9%
    03:00 +31°C° 0 mm 3 mps 730 mmHg 9%
    04:00 +31°C° 0 mm 2 mps 730 mmHg 9%
    05:00 +30°C° 0 mm 2 mps 730 mmHg 9%
    06:00 +32°C° 0 mm 2 mps 731 mmHg 8%
    07:00 +35°C° 0 mm 2 mps 731 mmHg 8%
    08:00 +37°C° 0 mm 1 mps 731 mmHg 7%
    09:00 +40°C° 0 mm 3 mps 731 mmHg 7%
    10:00 +43°C° 0 mm 4 mps 731 mmHg 7%
    11:00 +47°C° 0 mm 5 mps 731 mmHg 6%
    12:00 +47°C° 0 mm 5 mps 731 mmHg 6%
    13:00 +47°C° 0 mm 6 mps 730 mmHg 5%
    14:00 +48°C° 0 mm 6 mps 729 mmHg 5%
    15:00 +47°C° 0 mm 6 mps 729 mmHg 5%
    16:00 +47°C° 0 mm 6 mps 729 mmHg 4%
    17:00 +46°C° 0 mm 5 mps 728 mmHg 4%
    18:00 +43°C° 0 mm 4 mps 729 mmHg 5%
    19:00 +40°C° 0 mm 4 mps 729 mmHg 5%
    20:00 +37°C° 0 mm 3 mps 730 mmHg 6%
    21:00 +36°C° 0 mm 3 mps 730 mmHg 6%
    22:00 +35°C° 0 mm 2 mps 730 mmHg 7%
    23:00 +34°C° 0 mm 2 mps 730 mmHg 7%

    30 April, Tuesday

    Time Temperature Precipitation Wind Pressure Humidity
    00:00 +32°C° 0 mm 2 mps 730 mmHg 8%
    01:00 +32°C° 0 mm 2 mps 730 mmHg 8%
    02:00 +31°C° 0 mm 2 mps 729 mmHg 9%
    03:00 +31°C° 0 mm 2 mps 729 mmHg 10%
    04:00 +30°C° 0 mm 2 mps 729 mmHg 10%
    05:00 +30°C° 0 mm 2 mps 729 mmHg 11%
    06:00 +32°C° 0 mm 2 mps 730 mmHg 10%
    07:00 +35°C° 0 mm 3 mps 730 mmHg 10%
    08:00 +37°C° 0 mm 3 mps 731 mmHg 9%
    09:00 +40°C° 0 mm 3 mps 731 mmHg 8%
    10:00 +43°C° 0 mm 3 mps 731 mmHg 7%
    11:00 +46°C° 0 mm 2 mps 730 mmHg 6%
    12:00 +46°C° 0 mm 2 mps 730 mmHg 5%
    13:00 +47°C° 0 mm 2 mps 729 mmHg 5%
    14:00 +47°C° 0 mm 1 mps 728 mmHg 5%
    15:00 +46°C° 0 mm 1 mps 728 mmHg 5%
    16:00 +46°C° 0 mm 1 mps 727 mmHg 5%
    17:00 +45°C° 0 mm 1 mps 727 mmHg 5%
    18:00 +43°C° 0 mm 1 mps 727 mmHg 6%
    19:00 +41°C° 0 mm 2 mps 728 mmHg 7%
    20:00 +39°C° 0 mm 2 mps 728 mmHg 7%
    21:00 +39°C° 0 mm 2 mps 728 mmHg 8%
    22:00 +38°C° 0 mm 2 mps 728 mmHg 8%
    23:00 +37°C° 0 mm 2 mps 728 mmHg 8%
    Show more